EW7119 Weather Reports


time (UTC)temp
F
wind
direction
speed
knots
gust
knots
rain 1hr
in
rain 24hr
in
rain mn
in
humidity
%
barometer
mb
20260503021513 44 128 4.3 9.6 0.00 0.00 0.00 40 1015.2
20260503020044 44 153 4.3 8.7 0.00 0.00 0.00 39 1015.1
20260503014617 45 141 1.7 7.0 0.00 0.00 0.00 39 1015.1
20260503013051 47 148 3.5 9.6 0.00 0.00 0.00 35 1015.1
20260503011525 48 150 1.7 7.8 0.00 0.00 0.00 33 1015.0
20260503010046 49 165 3.5 9.6 0.00 0.00 0.00 30 1015.1
20260503004556 52 217 0.9 3.5 0.00 0.00 0.00 25 1015.1
20260503003053 52 275 1.7 6.1 0.00 0.00 0.00 25 1015.4
20260503001559 53 313 0.0 3.5 0.00 0.00 0.00 26 1015.5
20260503000108 52 140 0.9 4.3 0.00 0.00 0.00 23 1015.9
20260502234617 53 165 0.9 6.1 0.00 0.00 0.00 26 1016.1
20260502233030 52 42 0.9 6.1 0.00 0.00 0.00 22 1016.3
20260502231521 51 177 1.7 7.0 0.00 0.00 0.00 22 1016.4
20260502230028 52 111 0.0 6.1 0.00 0.00 0.00 24 1016.5
20260502224528 51 213 0.9 6.1 0.00 0.00 0.00 23 1016.6
20260502223037 52 114 1.7 4.3 0.00 0.00 0.00 21 1016.9
20260502221540 53 275 0.9 5.2 0.00 0.00 0.00 26 1017.2
20260502220033 53 240 1.7 3.5 0.00 0.00 0.00 25 1017.6
20260502214510 51 281 0.9 5.2 0.00 0.00 0.00 25 1017.9
20260502213124 51 249 0.0 5.2 0.00 0.00 0.00 27 1018.4
20260502211555 50 134 0.9 6.1 0.00 0.00 0.00 22 1018.7
20260502210047 49 203 1.7 5.2 0.00 0.00 0.00 23 1019.0
20260502204549 49 148 2.6 7.0 0.00 0.02 0.00 25 1019.1
20260502203101 49 150 2.6 7.8 0.00 0.02 0.00 26 1019.1
20260502201552 49 140 2.6 5.2 0.00 0.02 0.00 27 1019.1
20260502200027 49 267 2.6 7.0 0.00 0.02 0.00 29 1019.3
20260502194513 49 298 0.0 4.3 0.00 0.17 0.00 30 1019.3
20260502193032 49 171 1.7 3.5 0.00 0.17 0.00 36 1019.4
20260502191540 48 138 1.7 4.3 0.00 0.17 0.00 30 1019.8
20260502190033 47 183 0.0 5.2 0.00 0.17 0.00 36 1020.0
20260502184622 47 167 0.0 7.8 0.00 0.27 0.00 31 1020.3
20260502183114 46 271 1.7 7.0 0.00 0.27 0.00 35 1020.4
20260502181612 46 266 1.7 6.1 0.00 0.27 0.00 36 1020.5
20260502163108 42 315 1.7 5.2 0.00 0.47 0.00 41 1021.4
20260502161607 42 249 0.9 3.5 0.00 0.47 0.00 42 1021.4
20260502151551 39 316 0.9 3.5 0.00 0.53 0.00 50 1021.2
20260502123045 26 52 0.0 3.5 0.00 0.53 0.00 78 1021.5
20260502121530 26 73 0.9 2.6 0.00 0.53 0.00 77 1021.3
20260502114558 26 89 0.9 3.5 0.00 0.53 0.00 76 1021.3
20260502113101 26 84 1.7 4.3 0.00 0.53 0.00 76 1021.3
20260502111623 25 82 1.7 4.3 0.00 0.53 0.00 77 1021.3
20260502110012 25 88 1.7 4.3 0.00 0.53 0.00 76 1021.2
20260502104559 25 99 0.9 2.6 0.00 0.53 0.00 78 1021.2
20260502103035 24 101 0.0 0.0 0.00 0.53 0.00 81 1021.1
20260502101532 24 101 0.0 0.0 0.00 0.53 0.00 82 1021.0
20260502090120 25 102 0.0 0.0 0.00 0.53 0.00 84 1020.7
20260502071516 26 102 0.0 0.0 0.00 0.53 0.00 84 1020.8
20260502070056 26 102 0.0 0.0 0.00 0.53 0.00 83 1020.8
20260502064517 26 102 0.0 0.0 0.00 0.53 0.00 84 1020.8
20260502063043 26 102 0.0 1.7 0.00 0.53 0.00 84 1020.8
20260502061546 26 102 0.0 0.0 0.00 0.53 0.00 84 1020.7
20260502054546 27 102 0.0 0.0 0.00 0.53 0.53 85 1020.6
20260502053050 27 102 0.0 0.9 0.00 0.53 0.53 82 1020.5
20260502051630 28 102 0.9 3.5 0.00 0.53 0.53 81 1020.5
20260502050044 28 108 0.0 0.0 0.00 0.53 0.53 80 1020.6
20260502044545 28 108 0.0 0.0 0.00 0.53 0.53 80 1020.5
20260502043123 28 108 0.0 0.0 0.00 0.53 0.53 78 1020.3
20260502041610 29 108 0.0 0.0 0.00 0.53 0.53 77 1020.3
20260502040027 30 108 0.0 0.0 0.00 0.53 0.53 75 1020.2
20260502034619 30 108 0.0 0.0 0.00 0.53 0.53 73 1020.0
20260502033114 30 108 0.0 0.0 0.00 0.53 0.53 72 1019.8
20260502031614 31 108 0.0 0.0 0.00 0.53 0.53 71 1019.6
20260502030112 31 108 0.9 3.5 0.00 0.53 0.53 73 1019.3
20260502024600 32 107 0.9 2.6 0.00 0.53 0.53 72 1019.1
20260502023126 32 100 1.7 3.5 0.00 0.53 0.53 73 1018.8